sat.trackr.live / text

‹ back to catalog

MR-1

NORAD 67557 · 2026-015B

PAYLOAD ACTIVE UNKNOWN

§ Identity

Operator
Country
SPN
Launch date
2026-01-22
Launch site
RLLB
Launch vehicle
Mass (kg)
RCS (m²)

External: N2YO · Heavens-Above · Gunter

§ Orbital elements

Epoch: 2026-09-20T11:33:37.556352Z

Period
106.46 min
Inclination
88.9945°
Eccentricity
0.0004407
Mean motion
13.52675047 rev/d
Perigee alt
1,059.2 km
Apogee alt
1,065.7 km
Semi-major
7,440.6 km
B*
4.9288e-5
RAAN
258.8654°
Arg perigee
136.3060°
Mean anomaly
223.8442°
Rev number
3,259

§ Raw data

MR-11 67557U 26015B   26263.48168468  .00000045  00000+0  49288-4 0  99912 67557  88.9945 258.8654 0004407 136.3060 223.8442 13.52675047 32591

JSON: /api/v1/satellites/67557 · /tle

For live sub-satellite position, see the globe view (requires WebGL).

§ Visibility from observer

Set your observer location to see the next 7 days of passes ≥ 10°. The values pass through the URL so the page stays shareable.

No JS? Fill the form by hand. The geolocation button needs JavaScript.

§ Radio — SatNOGS DB

ModeDescriptionDownlinkUplink
FM S-band telemetry 2.245 GHz

1 transmitter · refreshed weekly from db.satnogs.org